Tracking 28790 objects as of 19-Apr-2024
HD Live streaming from Space Station
objects crossing your sky now

FENGYUN 1C DEB

Track FENGYUN 1C DEB now!
10-day predictions


NORAD ID: 31812
Int'l Code: 1999-025CHA
Perigee: 846.1 km
Apogee: 942.0 km
Inclination: 98.8 °
Period: 102.7 minutes
Semi major axis: 7265 km
RCS: 0.0063 m2 (small)
Launch date: May 10, 1999
Source: People's Republic of China (PRC)
Launch site: Taiyaun Space Center, China (TSC)

Note: This is SATELLITE DEBRIS
Your satellite tracking list
Your tracking list is empty




NASA's NSSDC Master Catalog

Two Line Element Set (TLE):
1 31812U 99025CHA 24108.37519440  .00001834  00000-0  12070-2 0  9996
2 31812  98.8104 164.4389 0065958 105.6582 255.1874 14.01993053601624
Source of the keplerian elements: AFSPC